Brownville, NY

12:46 AM EDT on August 26, 2016 (GMT -0400)
Watertown International

Weather History for KART - September, 2013

Change the Weather History Date:

Sunday, September 29, 2013

  Actual Average Record
Temperature  
Mean Temperature 62 °F 54 °F  
Max Temperature 74 °F 65 °F 88 °F (1959)
Min Temperature 49 °F 44 °F 23 °F (2000)
Degree Days  
Heating Degree Days 3 11  
Month to date heating degree days 228 190  
Since 1 July heating degree days 271 262  
Cooling Degree Days 0 0  
Month to date cooling degree days 48 36  
Year to date cooling degree days 481 360  
Growing Degree Days 10 (Base 50)    
Moisture  
Dew Point 48 °F    
Average Humidity 61    
Maximum Humidity 86    
Minimum Humidity 35    
Precipitation  
Precipitation 0.00 in 0.13 in 1.81 in (1997)
Month to date precipitation 2.82 3.58  
Year to date precipitation 24.62 25.38  
Sea Level Pressure  
Sea Level Pressure 30.10 in    
Wind  
Wind Speed 5 mph (South)    
Max Wind Speed 15 mph    
Max Gust Speed 23 mph    
Visibility 10 miles    
Events      
T = Trace of Precipitation, MM = Missing Value Source: NWS Daily Summary

Daily Weather History Graph

Daily Weather History Graph

Search for Another Location

Airport or City:

Trip Planner

Search our weather history database for the weather conditions in past years. The results will help you decide how hot, cold, wet, or windy it might be!

Date:

Astronomy

Sep. 29, 2013 Rise Set
Actual Time 6:59 AM EDT 6:48 PM EDT
Civil Twilight 6:30 AM EDT 7:16 PM EDT
Nautical Twilight 5:57 AM EDT 7:50 PM EDT
Astronomical Twilight 5:23 AM EDT 8:24 PM EDT
Moon 1:29 AM EDT (9/29) 3:51 PM EDT (9/29)
Length of Visible Light 12h 45m
Length of Day
11h 48m
Waning Crescent, 27% of the Moon is Illuminated
Sep 29
Waning Crescent
Oct 4
New
Oct 11
First Quarter
Oct 18
Full
Oct 26
Last Quarter

Hourly Weather History & Observations

Time (EDT) Temp. Dew Point Humidity Pressure Visibility Wind Dir Wind Speed Gust Speed Precip Events Conditions
12:56 AM 55.9 °F 46.9 °F 72% 30.19 in 10.0 mi SE 3.5 mph - N/A   Clear
1:56 AM 55.9 °F 48.0 °F 75% 30.18 in 10.0 mi SSE 4.6 mph - N/A   Clear
2:56 AM 55.9 °F 46.9 °F 72% 30.17 in 10.0 mi SSE 4.6 mph - N/A   Clear
3:56 AM 55.0 °F 46.9 °F 74% 30.17 in 10.0 mi Calm Calm - N/A   Clear
4:56 AM 48.9 °F 45.0 °F 86% 30.16 in 10.0 mi Calm Calm - N/A   Clear
5:56 AM 54.0 °F 46.9 °F 77% 30.15 in 10.0 mi SSE 3.5 mph - N/A   Clear
6:56 AM 53.1 °F 46.9 °F 80% 30.16 in 10.0 mi SSE 3.5 mph - N/A   Clear
7:56 AM 57.0 °F 48.0 °F 72% 30.16 in 10.0 mi SSE 5.8 mph - N/A   Clear
8:56 AM 62.1 °F 50.0 °F 65% 30.15 in 10.0 mi South 8.1 mph - N/A   Clear
9:56 AM 66.0 °F 50.0 °F 56% 30.15 in 10.0 mi South 8.1 mph - N/A   Clear
10:56 AM 68.0 °F 50.0 °F 52% 30.14 in 10.0 mi SSW 11.5 mph 20.7 mph N/A   Clear
11:56 AM 71.1 °F 48.9 °F 45% 30.12 in 10.0 mi SSW 9.2 mph 19.6 mph N/A   Clear
12:56 PM 71.1 °F 46.0 °F 41% 30.11 in 10.0 mi SSW 12.7 mph 21.9 mph N/A   Clear
1:56 PM 73.0 °F 48.0 °F 41% 30.07 in 10.0 mi South 10.4 mph 17.3 mph N/A   Clear
2:56 PM 73.9 °F 48.0 °F 40% 30.05 in 10.0 mi SSW 9.2 mph 17.3 mph N/A   Clear
3:56 PM 73.9 °F 45.0 °F 35% 30.04 in 10.0 mi South 9.2 mph 17.3 mph N/A   Clear
4:56 PM 73.0 °F 48.0 °F 41% 30.03 in 10.0 mi SW 5.8 mph - N/A   Clear
5:56 PM 70.0 °F 48.9 °F 47% 30.03 in 10.0 mi South 3.5 mph - N/A   Clear
6:56 PM 63.0 °F 48.9 °F 60% 30.04 in 10.0 mi Calm Calm - N/A   Clear
7:56 PM 60.1 °F 48.0 °F 64% 30.03 in 10.0 mi SSE 3.5 mph - N/A   Clear
8:56 PM 55.9 °F 46.9 °F 72% 30.04 in 10.0 mi Calm Calm - N/A   Clear
9:56 PM 57.0 °F 48.0 °F 72% 30.04 in 10.0 mi Calm Calm - N/A   Clear
10:56 PM 57.0 °F 48.0 °F 72% 30.04 in 10.0 mi Calm Calm - N/A   Clear
11:56 PM 54.0 °F 46.9 °F 77% 30.03 in 10.0 mi Calm Calm - N/A   Clear